Location: São Paulo
(23.5507°S, 46.6334°W)
Time: 08:12:57
(UTC-03:00)

Vanguard 3 - Pass Details

Date: 18 February 2026
Orbit: 507 x 3205 km, 33.4° (Epoch: 7 March)

Event Time Altitude Azimuth Distance (km) Brightness Sun altitude
Exits shadow 01:16:59 13° 93° (E) 3,539 10.5 -52.2°
Drops below altitude 10° 01:18:18 10° 97° (E) 3,934 10.8 -52.1°
Sets 01:23:16 0° 108° (ESE) 5,464 11.7 -51.6°
